RH
11 12 11 12 13 14 15 15 18 24 28 28 29 29 33 32 36 34 32 34 36 32 33 36 37 39 39 40 41 34 26 19 11 10 8 8 30 36 38 79 94 99 99 98
14 14 15 15 16 17 18 21 27 32 34 34 33 33 33 32 30 28 27 26 24 22 19 19 18 20 24 26 20 17 15 13 10 8 7 7 8 20 39 40 66 98 99 99
16 17 17 18 18 21 24 28 32 28 22 18 17 15 15 14 14 13 13 13 12 12 12 12 12 12 12 12 11 10 10 9 8 6 6 6 7 7 11 38 41 70 95 96
18 18 18 19 22 23 21 20 19 18 18 19 21 27 20 18 17 16 15 14 15 15 14 12 10 9 8 8 8 7 6 6 5 5 5 5 5 6 7 9 40 47 78 89
19 20 20 19 18 18 19 17 18 20 25 36 32 39 26 26 24 21 21 24 24 22 21 18 18 16 13 10 9 10 10 8 5 4 4 4 5 5 5 10 13 44 66 98
22 21 20 20 20 20 22 25 30 37 46 72 39 40 31 26 30 38 41 45 42 41 40 34 34 36 36 36 34 30 26 23 21 14 8 5 4 6 6 7 13 22 74 90
24 24 24 24 26 28 30 39 53 64 82 77 44 60 44 36 46 50 52 40 32 27 23 20 18 16 16 15 15 16 19 22 23 24 24 18 10 6 7 12 15 17 47 86
32 30 29 31 28 33 42 46 49 73 80 67 60 64 52 46 50 46 40 29 27 26 23 20 18 15 14 12 11 9 9 10 13 14 13 18 22 18 8 9 27 26 18 90
31 40 33 33 32 39 52 57 53 59 67 98 57 51 45 40 39 43 36 34 33 30 28 22 18 18 16 13 10 8 6 6 6 8 12 14 13 15 19 12 10 29 34 76
43 48 42 43 43 54 59 58 67 73 98 100 74 68 51 46 47 38 38 39 39 38 30 26 26 27 30 31 29 24 20 14 9 8 7 9 14 19 14 15 14 11 31 61
50 59 55 52 48 41 51 67 70 76 91 99 97 59 44 41 43 48 44 48 51 40 36 32 37 43 45 45 46 42 38 33 30 22 18 11 12 17 17 14 11 14 14 41
60 67 68 62 57 56 56 65 74 90 80 99 99 78 58 58 52 52 62 66 59 53 46 46 48 52 55 59 58 60 57 51 50 46 36 30 26 22 20 18 16 8 11 18
65 85 84 72 61 58 53 41 42 56 92 92 100 74 62 60 66 72 70 71 66 55 50 46 52 60 65 66 71 74 76 72 65 63 60 50 48 41 29 26 21 19 9 10
82 87 80 72 52 46 46 36 45 58 96 79 75 60 53 81 81 81 77 70 59 57 54 54 58 64 69 75 78 82 87 88 84 79 75 67 56 51 47 44 41 31 18 12
96 99 96 92 93 94 93 83 65 69 55 100 57 75 76 91 89 73 64 59 56 59 62 64 65 70 76 80 84 86 89 88 89 88 85 82 76 70 63 59 60 56 37 20
88 95 100 98 72 90 94 90 94 81 72 94 75 64 81 92 78 78 66 60 62 60 64 68 74 80 84 85 87 87 86 87 87 87 88 87 85 83 81 77 74 75 62 43
100 98 99 96 76 79 99 92 92 76 75 99 94 83 100 97 96 81 66 67 60 58 62 70 80 82 87 91 93 90 89 92 92 95 98 98 95 89 87 85 82 80 72 55
90 99 100 96 98 98 75 76 66 66 66 79 97 100 100 100 100 79 70 63 63 63 71 73 80 85 91 94 97 95 98 98 97 99 100 100 98 94 96 97 95 87 84 73
72 100 99 97 96 90 89 78 77 71 86 96 99 100 100 100 96 81 74 68 73 74 77 77 79 92 93 97 100 99 98 100 100 100 99 99 98 97 97 96 94 92 91 88
52 66 100 100 98 96 75 80 90 95 99 99 99 100 100 100 100 92 80 78 76 74 80 80 75 91 98 100 100 100 100 100 100 99 96 98 99 99 98 98 97 97 96 96
96 100 100 99 99 100 100 99 100 100 91 93 99 100 100 100 98 79 73 76 76 78 77 82 78 75 98 99 100 100 100 100 100 100 99 98 99 98 98 98 98 98 97 97
100 100 100 100 100 100 94 95 97 95 96 100 99 100 100 100 91 80 77 77 80 78 78 84 78 70 73 97 100 100 100 100 100 100 100 100 100 99 99 99 99 98 97 97
100 100 100 100 100 100 100 100 100 100 100 100 99 100 100 100 94 79 76 79 82 81 80 85 79 67 64 76 96 99 100 100 100 100 100 100 99 98 98 97 98 98 97 97
100 100 100 100 100 100 100 100 100 100 100 100 100 100 100 93 81 80 78 82 86 89 86 84 79 67 60 59 70 97 99 100 100 100 100 99 98 99 99 99 98 97 97 96
100 100 100 100 100 100 100 100 100 100 100 100 99 97 95 87 83 81 83 86 90 91 90 87 79 67 60 57 57 62 91 99 100 100 100 100 100 100 99 99 97 99 99 97
100 100 100 100 100 100 100 99 100 100 100 100 100 100 94 87 87 87 88 88 91 92 91 87 78 68 63 58 54 52 55 68 92 98 100 99 99 99 99 99 99 99 99 98
Wind_Speed
30 31 33 30 30 31 34 34 32 26 26 26 31 32 30 31 37 39 40 41 42 40 41 41 41 41 42 42 41 42 42 44 48 50 46 42 44 43 44 44 43 37 37 40
27 30 25 29 30 30 31 31 33 31 30 29 34 38 39 41 41 43 45 45 46 47 47 49 50 50 51 53 54 55 57 59 57 55 52 51 48 46 47 46 46 43 38 39
26 25 28 26 25 25 27 28 27 28 28 29 33 42 43 45 49 49 50 49 49 49 49 46 46 50 53 57 59 58 58 61 62 59 57 54 55 53 50 51 48 48 48 47
21 22 25 25 23 22 27 28 27 27 28 21 20 13 24 24 27 32 35 36 36 37 39 47 52 52 54 55 55 58 58 56 55 54 54 58 57 57 56 54 54 51 48 52
21 24 22 22 22 23 26 30 30 30 28 25 29 13 16 20 28 29 31 33 36 37 37 37 40 45 49 52 54 54 52 53 54 56 60 59 56 61 58 58 58 56 52 48
24 24 24 23 24 26 26 25 24 23 22 7 28 24 14 24 23 25 24 22 23 25 27 28 31 35 39 43 47 50 49 49 50 52 55 60 63 60 60 61 62 60 50 47
23 27 32 32 26 21 23 19 5 4 1 6 9 9 21 17 13 13 15 17 20 24 29 33 37 39 40 42 47 51 54 55 53 53 52 55 60 66 64 62 63 64 60 56
18 11 11 12 16 17 15 18 10 7 3 3 5 8 7 9 13 11 10 13 25 31 33 37 40 43 45 47 47 49 53 55 56 55 55 57 56 61 67 66 65 64 65 61
10 10 15 18 20 19 15 19 21 13 13 3 12 17 22 27 26 16 13 21 30 32 38 39 39 41 42 44 45 47 48 50 54 57 57 54 57 60 63 67 70 68 67 68
18 19 19 19 18 19 20 17 9 7 1 4 5 8 17 13 15 18 22 29 30 34 33 36 39 40 40 39 39 41 44 47 49 51 54 56 53 56 59 66 68 73 73 74
20 22 17 15 16 20 20 20 18 13 11 4 2 9 10 13 18 23 30 27 32 32 33 36 38 39 39 38 37 36 38 42 44 47 50 52 54 55 57 60 66 70 76 76
19 17 18 22 19 19 19 21 19 8 7 8 9 20 24 20 25 25 28 32 31 32 35 36 37 37 37 37 37 36 35 36 40 42 45 49 52 53 55 56 60 67 73 80
16 12 7 6 14 17 22 22 21 19 19 20 10 15 24 25 20 29 30 31 32 32 33 33 34 35 36 35 35 34 34 34 35 37 39 42 46 50 53 55 59 62 70 74
21 27 28 22 22 18 14 19 19 16 13 25 27 34 31 30 28 30 31 29 29 30 31 32 33 33 33 33 33 33 33 32 33 34 36 38 40 44 48 53 56 60 65 71
27 30 27 30 33 35 26 23 23 22 27 27 32 31 31 32 31 31 26 24 26 29 29 30 31 32 31 31 31 31 30 30 31 31 31 33 36 39 43 47 52 56 61 66
33 36 31 32 32 32 32 36 29 29 28 29 29 32 30 27 26 27 26 24 25 27 28 29 30 31 30 31 30 29 29 29 30 29 28 29 31 34 36 40 45 50 55 61
33 34 29 29 27 25 22 31 29 31 31 29 28 28 26 24 23 27 25 24 25 26 28 30 31 31 30 30 31 31 31 31 30 30 29 29 29 30 33 36 38 42 46 51
30 30 30 19 18 10 19 18 18 17 20 21 23 25 26 25 22 23 22 24 24 25 28 28 30 30 30 30 30 30 31 30 30 30 28 26 26 26 29 30 32 36 40 45
25 27 21 10 15 11 9 13 13 16 16 18 21 23 23 22 21 18 20 23 24 25 26 27 29 31 30 31 30 30 30 29 29 28 25 24 24 24 25 28 29 30 33 37
23 21 29 11 6 7 9 10 7 10 13 14 14 17 17 17 16 15 18 21 21 23 25 26 27 28 29 29 28 29 29 28 28 27 25 25 24 22 22 25 29 29 29 32
10 13 21 21 6 4 7 7 6 5 7 7 9 11 13 13 16 17 19 20 22 23 24 24 26 27 28 28 27 27 27 26 25 26 25 24 22 21 20 21 22 19 20 22
5 4 3 5 4 3 7 7 7 9 11 12 13 14 15 16 16 19 21 22 23 22 22 24 24 25 27 28 26 26 26 25 24 24 24 23 21 20 18 19 19 12 7 12
3 3 1 2 3 5 1 5 8 12 14 15 16 16 16 16 18 20 21 23 23 22 22 23 24 23 24 26 28 27 25 25 24 23 23 22 20 20 19 19 19 13 8 5
2 2 3 3 4 4 7 8 9 11 12 13 14 15 16 17 19 20 22 22 22 21 21 22 22 22 21 22 24 27 28 27 26 24 23 21 20 20 19 19 20 21 18 17
3 2 3 5 6 7 8 10 11 12 13 15 16 16 16 17 19 21 21 21 20 20 20 21 21 21 21 22 22 23 26 28 28 26 25 22 22 21 18 21 22 21 23 23
1 2 3 4 7 9 11 12 14 15 15 15 16 16 19 19 19 20 21 22 20 19 19 19 19 20 20 20 20 21 22 25 28 29 28 27 23 23 22 19 16 17 17 16
Wind_Direction
279 277 277 281 274 268 269 269 269 266 256 245 234 225 233 232 228 230 230 231 235 240 243 243 243 244 246 245 244 246 249 259 268 271 264 253 250 248 244 240 240 238 238 244
281 278 277 272 269 268 268 267 266 268 264 258 258 253 247 254 254 253 253 253 252 255 258 258 258 256 254 252 257 260 263 265 268 266 262 258 249 248 248 245 239 238 234 240
280 277 279 275 271 263 261 260 264 269 276 274 276 272 267 265 267 270 272 273 272 269 267 264 263 263 262 262 264 265 266 268 269 263 256 253 252 249 246 247 241 238 237 231
283 273 271 271 266 265 272 273 276 281 285 281 275 280 273 266 262 262 265 266 264 264 267 270 271 271 270 268 266 264 262 260 259 259 256 251 249 248 248 243 244 239 237 235
278 277 275 272 274 276 275 283 283 280 278 278 270 259 268 261 245 246 252 258 263 265 264 263 263 268 271 272 271 270 268 264 260 259 256 255 250 246 244 244 241 240 236 242
274 274 276 278 280 276 274 275 277 276 272 254 267 248 257 262 251 246 250 260 268 275 281 287 281 274 272 273 275 275 273 270 267 262 259 255 253 249 244 242 242 241 238 232
283 282 281 275 267 268 273 266 296 293 217 234 267 254 248 261 244 234 249 273 295 303 302 298 295 292 287 283 281 278 275 275 272 270 267 261 257 252 249 242 241 240 235 232
280 283 254 256 271 265 264 249 223 222 224 259 264 242 255 253 258 281 302 311 320 317 311 308 304 300 297 293 289 284 281 276 274 273 271 267 265 258 252 248 240 239 237 233
279 248 276 277 275 263 250 235 255 264 274 273 257 263 267 270 268 291 309 317 315 309 308 307 305 304 300 296 291 287 283 281 279 276 272 269 267 264 259 253 246 240 236 231
270 271 271 257 261 251 248 255 242 224 289 260 274 269 252 272 292 297 306 306 305 307 306 306 306 307 307 305 297 290 286 283 280 276 274 271 267 265 264 257 251 244 237 232
271 257 261 264 256 256 252 244 239 249 235 205 247 259 280 281 287 294 298 302 308 309 309 311 312 311 310 308 304 297 291 287 282 277 273 271 268 266 265 263 256 250 243 236
272 262 259 268 263 259 251 243 243 238 252 248 265 273 285 287 290 291 303 309 311 311 312 314 313 312 313 311 308 305 299 292 289 284 278 271 268 267 264 264 261 254 248 239
278 251 262 278 271 253 246 252 254 255 252 260 264 273 290 290 292 305 305 306 309 308 312 314 314 314 313 311 309 307 304 298 293 289 284 277 273 269 265 266 261 256 250 246
265 255 251 246 260 273 251 246 239 247 253 258 262 281 286 287 295 301 301 300 303 310 316 318 317 314 313 314 312 310 306 302 298 294 289 284 278 274 270 268 263 257 249 246
258 261 258 262 267 266 266 262 258 253 267 258 277 279 287 286 296 294 296 302 308 313 316 318 318 318 320 317 314 309 307 309 306 298 292 287 284 281 277 272 267 260 252 245
271 251 257 263 270 278 269 262 253 266 268 266 273 284 284 280 289 293 296 307 311 313 317 320 324 323 322 322 319 316 317 318 312 308 304 298 293 288 284 278 271 264 253 246
271 257 247 251 261 276 253 253 250 261 267 271 272 280 281 277 288 293 296 305 309 314 319 324 326 326 327 327 326 326 325 323 320 317 314 308 301 297 294 287 279 269 256 247
271 258 236 248 260 237 249 245 249 261 270 271 270 272 272 280 284 286 293 302 312 318 320 322 326 328 330 330 330 329 327 324 323 322 317 312 307 303 302 294 288 279 265 250
260 256 250 240 232 242 229 238 251 264 275 277 272 271 277 279 280 284 297 304 315 316 318 326 329 330 332 332 332 331 329 328 326 324 323 322 318 312 316 316 309 296 276 257
291 278 238 220 195 204 241 233 262 280 266 281 286 280 279 276 273 288 295 301 307 312 318 324 327 331 331 332 334 334 333 332 330 331 333 332 327 318 319 322 314 301 282 262
270 236 221 214 208 207 240 260 266 233 266 294 291 286 283 285 287 296 300 310 314 316 317 322 327 329 332 334 337 339 338 337 337 338 338 335 330 326 322 326 318 298 283 266
267 265 240 215 184 190 267 253 242 259 269 279 284 289 292 293 298 302 308 311 312 314 314 318 323 328 331 334 340 343 345 345 344 343 343 339 338 336 336 337 328 309 297 268
246 242 259 274 179 194 273 258 264 267 275 280 284 287 290 295 299 302 306 308 310 312 313 318 322 327 330 333 338 346 350 352 354 349 352 345 349 346 346 350 351 350 33 51
198 206 206 206 243 261 272 273 273 276 280 284 288 291 295 299 302 307 307 309 310 311 311 314 320 323 329 334 338 342 349 356 358 357 360 356 359 357 355 3 6 7 22 37
227 219 231 248 258 271 273 276 279 284 287 289 292 295 299 303 304 305 307 308 311 312 312 314 318 323 329 336 339 343 347 351 357 2 4 6 9 5 12 7 9 13 16 24
228 241 251 277 279 280 282 283 282 285 290 293 295 298 302 303 302 302 305 307 311 312 311 312 318 323 326 330 337 344 349 350 352 357 4 9 11 11 19 22 23 18 18 27